sat.trackr.live / text

‹ back to catalog

STARLINK-2514

NORAD 48331 · 2021-036BH

PAYLOAD ACTIVE UNKNOWN

§ Identity

Operator
Country
US
Launch date
2021-04-29
Launch site
AFETR
Launch vehicle
Mass (kg)
RCS (m²)

Purposes: comms

External: N2YO · Heavens-Above · Gunter

§ Orbital elements

Epoch: 2026-09-19T15:54:22.289472Z

Period
93.45 min
Inclination
53.1542°
Eccentricity
0.0001461
Mean motion
15.40858368 rev/d
Perigee alt
442.6 km
Apogee alt
444.6 km
Semi-major
6,821.7 km
B*
9.6908e-4
RAAN
274.9908°
Arg perigee
6.0887°
Mean anomaly
354.0136°
Rev number
29,781

§ Raw data

STARLINK-25141 48331U 21036BH  26262.66275798  .00040188  00000+0  96908-3 0  99942 48331  53.1542 274.9908 0001461   6.0887 354.0136 15.40858368297818

JSON: /api/v1/satellites/48331 · /tle

For live sub-satellite position, see the globe view (requires WebGL).

§ Visibility from observer

Set your observer location to see the next 7 days of passes ≥ 10°. The values pass through the URL so the page stays shareable.

No JS? Fill the form by hand. The geolocation button needs JavaScript.